Location: Lone Tree Crossing
(44.4480°N, 108.7040°W)
Time: 18:44:34
(UTC+00:00)

Envisat - Visible Passes

Search period start: 22 January 2022 00:00
Search period end: 01 February 2022 00:00
Orbit: 764 x 766 km, 98.2° (Epoch: 22 January)

Date Brightness Start Highest point End Pass type
(mag) Time Alt. Az. Time Alt. Az. Time Alt. Az.
22 Jan 3.7 11:51:00 10° NNE 11:55:59 53° E 12:00:56 10° S visible
22 Jan 4.1 13:30:49 10° NNW 13:34:38 22° WNW 13:38:25 10° WSW visible
23 Jan 6.1 00:49:27 10° WSW 00:51:41 13° W 00:53:56 10° WNW visible
23 Jan 5.0 11:14:45 10° NE 11:18:53 25° E 11:23:00 10° SSE visible
23 Jan 3.3 12:53:16 10° N 12:58:04 43° WNW 13:02:50 10° SW visible
24 Jan 6.0 10:40:09 10° ENE 10:41:34 11° E 10:43:00 10° ESE visible
24 Jan 2.9 12:16:11 10° NNE 12:21:18 89° ESE 12:26:23 10° SSW visible
24 Jan 4.6 13:57:10 10° NNW 13:59:34 14° WNW 14:01:59 10° W visible
25 Jan 4.1 11:39:31 10° NNE 11:44:20 41° E 11:49:08 10° SSE visible
25 Jan 3.9 13:18:57 10° N 13:23:09 27° WNW 13:27:20 10° WSW visible
26 Jan 5.4 11:03:32 10° NE 11:07:11 20° E 11:10:49 10° SE visible
26 Jan 3.0 12:41:34 10° N 12:46:31 54° WNW 12:51:27 10° SSW visible
27 Jan 3.1 12:04:36 10° NNE 12:09:42 72° ESE 12:14:46 10° S visible
27 Jan 4.4 13:45:00 10° NNW 13:48:08 17° WNW 13:51:16 10° W visible
28 Jan 4.5 11:28:06 10° NNE 11:32:41 33° E 11:37:14 10° SSE visible
28 Jan 3.6 13:07:09 10° N 13:11:39 33° WNW 13:16:08 10° SW visible
29 Jan 5.7 10:52:29 10° NE 10:55:27 15° E 10:58:25 10° SE visible
29 Jan 2.9 12:29:54 10° N 12:34:58 68° WNW 12:40:00 10° SSW visible
30 Jan 3.5 11:53:04 10° NNE 11:58:05 56° E 12:03:03 10° S visible
30 Jan 4.2 13:33:00 10° NNW 13:36:41 20° WNW 13:40:21 10° WSW visible
31 Jan 6.3 00:51:58 10° WSW 00:53:49 12° W 00:55:40 10° WNW visible
31 Jan 4.9 11:16:45 10° NE 11:21:00 26° E 11:25:14 10° SSE visible
31 Jan 3.3 12:55:23 10° N 13:00:08 40° WNW 13:04:51 10° SW visible
